Temperature
16 17 17 17 17 18 20 22 23 23 23 23 23 23 22 21 20 18 17 16 16 16 16 16 16 16 16 16 16 16 16 16 16 16 16 16 15 16 15 15 15 15 15 15 15 15 15 15 15
16 16 17 18 18 18 20 21 22 22 22 22 22 22 21 20 19 17 16 16 16 16 16 16 16 16 16 16 16 16 16 16 16 16 15 15 15 15 15 15 15 15 15 15 15 15 15 15 15
16 16 17 18 18 19 21 22 22 22 22 22 21 21 20 19 17 17 16 16 15 15 15 16 16 16 15 15 15 15 15 15 15 15 15 15 15 15 15 15 15 15 15 15 15 15 15 15 15
15 16 18 17 18 20 21 21 21 21 21 21 21 20 18 17 16 16 16 15 15 15 15 15 15 15 15 15 15 15 15 15 15 15 15 15 15 15 15 15 15 15 15 15 15 15 14 14 14
15 17 17 17 18 20 20 21 21 21 21 21 20 19 17 16 16 16 15 15 15 15 15 15 15 15 15 15 15 15 15 15 15 15 15 15 15 15 15 15 15 15 15 15 15 14 14 14 14
16 17 17 17 19 20 20 20 20 20 20 20 19 18 16 15 15 15 15 15 15 15 15 15 15 15 15 15 15 15 15 15 15 15 15 15 15 15 14 14 14 14 14 14 14 14 14 14 14
16 16 17 18 18 19 20 19 19 19 19 18 18 17 16 15 15 15 15 15 15 14 14 14 14 14 14 14 14 14 14 14 14 14 14 14 14 14 14 14 14 14 14 14 14 14 14 14 14
15 16 17 17 18 18 19 18 18 18 17 17 17 16 15 15 14 15 15 15 15 14 14 14 14 14 14 14 14 14 14 14 14 14 14 14 14 14 14 14 14 14 14 14 14 14 14 13 13
14 14 15 17 17 17 17 17 17 16 16 16 15 15 15 14 14 14 14 14 14 14 14 14 14 14 14 14 14 14 14 14 14 14 13 14 14 14 13 13 13 13 13 13 13 13 13 13 13
14 14 15 16 16 16 16 16 16 16 15 15 15 14 14 14 14 14 14 14 14 14 13 13 13 13 13 13 13 13 13 13 13 13 13 13 13 13 13 13 13 13 13 13 13 13 13 13 12
14 13 14 15 15 15 15 15 15 15 14 15 14 14 13 13 13 14 13 13 13 13 13 13 13 13 13 13 13 13 13 13 13 13 13 13 13 13 13 13 12 12 12 12 12 12 12 12 12
14 14 14 14 14 14 14 14 14 14 14 14 14 13 13 13 13 13 13 13 13 13 13 13 13 13 13 13 13 13 13 13 13 12 12 12 12 12 12 12 12 12 12 12 12 12 12 12 12
13 13 13 13 13 13 13 13 13 13 13 13 13 12 12 12 12 12 13 12 12 12 13 13 13 13 13 12 12 12 12 12 12 12 12 12 12 12 12 12 12 12 12 12 12 12 11 11 11
13 13 13 13 12 12 12 12 12 12 13 13 13 12 12 11 11 12 12 12 12 12 12 12 12 12 12 12 12 12 12 12 12 12 12 12 12 12 12 12 12 12 11 11 11 11 11 11 11
12 12 12 12 13 12 12 11 12 12 13 13 12 12 12 11 11 11 12 12 12 12 12 12 12 12 12 12 12 12 12 12 12 12 12 12 12 12 12 11 11 11 11 11 11 11 11 11 11
12 11 11 12 13 12 11 10 12 12 12 12 12 12 12 11 11 11 11 11 11 11 11 11 11 12 12 12 12 12 12 11 11 11 11 11 11 11 11 11 11 11 11 11 11 11 11 11 11
11 11 11 12 12 12 11 10 12 12 12 12 12 12 11 11 11 11 11 11 10 10 10 11 11 11 11 11 11 11 11 11 11 11 11 11 11 11 11 11 11 11 11 11 11 11 11 11 11
11 11 12 12 12 12 11 10 11 11 12 11 11 11 11 11 11 10 10 10 10 10 10 10 10 10 11 11 11 11 11 11 11 11 11 10 10 11 11 11 11 11 10 10 10 10 10 10 10
11 11 11 12 12 11 10 10 11 11 11 11 11 11 11 11 10 10 10 9 9 9 10 10 10 10 10 10 10 10 10 10 10 10 10 10 10 10 10 10 10 10 10 10 10 10 10 10 10
11 10 11 11 11 11 10 10 11 11 11 11 11 11 11 10 10 9 9 9 9 9 9 9 9 9 9 10 10 10 10 10 10 10 10 10 10 10 10 10 10 10 10 10 10 10 9 10 9
10 10 10 10 10 10 10 10 10 11 11 11 11 10 10 10 9 9 9 9 8 8 8 8 9 9 9 9 9 9 9 10 9 9 9 9 9 9 9 9 10 10 10 9 9 9 9 9 9
9 10 10 9 9 9 10 8 10 10 10 10 10 10 10 9 9 8 8 8 8 8 8 8 8 8 8 8 8 9 9 9 9 9 9 9 9 9 9 9 9 9 9 9 9 9 8 8 8
9 10 9 9 9 8 9 8 9 10 9 9 9 9 9 9 8 8 8 8 7 7 8 8 8 8 8 8 8 8 8 8 8 8 8 8 8 8 8 8 8 8 8 8 8 8 8 8 8
9 9 9 9 8 7 9 9 9 9 9 9 9 9 8 8 8 8 7 7 7 7 7 7 7 7 7 7 7 7 7 7 7 7 7 8 8 8 8 8 7 7 7 7 8 7 7 7 7
8 7 7 7 7 8 10 9 9 9 9 9 8 8 8 8 7 7 7 7 7 7 7 7 6 7 7 7 7 6 6 6 6 6 7 7 7 7 7 7 7 7 7 7 7 7 7 7 7
7 7 7 7 8 9 9 9 9 9 9 9 9 8 7 7 7 6 6 6 6 6 6 6 6 6 6 6 6 6 6 6 6 6 6 6 6 6 6 6 6 6 6 6 6 6 6 6 6
7 7 8 7 7 7 8 9 8 9 8 8 7 7 7 6 6 6 6 6 6 6 6 5 5 5 5 5 5 5 5 5 5 5 5 5 5 5 5 5 5 6 6 6 6 6 6 6 6
7 7 7 7 7 8 9 9 8 7 6 6 6 6 6 6 6 5 5 5 5 5 5 5 5 5 5 5 5 4 5 5 5 5 5 5 5 5 5 5 5 5 5 5 5 5 5 5 5
6 7 7 6 7 7 8 8 8 7 6 6 5 6 6 5 5 5 4 4 5 4 4 4 4 4 4 4 4 4 4 4 4 4 4 4 4 4 4 4 4 5 5 5 5 5 5 5 5
6 7 6 6 6 7 6 7 7 7 6 6 6 6 5 5 5 4 4 4 4 4 4 4 3 3 3 4 4 4 4 4 4 4 4 4 4 4 4 4 4 4 4 4 4 4 5 5 5
Wind_Speed
15 14 7 3 3 5 8 6 3 1 1 3 5 3 4 5 5 7 4 6 10 10 12 11 11 11 10 11 10 10 10 11 11 11 11 11 11 12 12 12 12 13 13 13 12 13 12 13 13
12 9 4 3 4 7 7 7 4 1 3 3 3 2 3 5 7 7 4 7 9 11 12 11 12 11 11 11 11 10 11 11 11 11 11 11 11 11 11 11 12 12 12 12 12 12 11 11 12
10 8 4 3 5 7 5 0 3 5 4 2 1 3 3 4 6 5 5 6 8 10 12 12 12 11 11 11 11 10 10 10 10 10 10 10 10 11 11 11 11 11 11 11 11 11 11 10 10
5 3 4 5 9 7 4 2 2 3 3 2 1 3 4 6 4 4 5 6 8 9 12 12 12 11 11 11 10 10 10 10 10 10 9 9 9 10 10 10 10 10 10 11 11 10 10 9 9
4 4 5 7 10 6 3 1 1 0 2 2 2 2 4 5 7 6 4 5 8 9 11 12 11 11 11 11 10 10 9 9 9 9 9 8 9 9 9 9 9 9 9 9 9 9 9 8 8
3 4 5 8 8 6 3 0 1 0 1 1 1 2 4 5 6 4 3 5 7 9 10 11 10 10 10 10 10 9 9 8 8 8 8 8 8 9 9 9 8 8 8 8 8 8 8 7 7
4 4 7 8 6 4 2 1 1 1 1 1 3 0 4 5 4 3 4 5 8 8 9 9 9 9 9 9 9 9 8 8 8 8 8 8 9 9 8 8 8 8 7 7 7 7 7 6 6
4 3 6 7 7 4 1 1 2 3 2 3 3 1 3 3 3 3 4 6 7 7 7 7 7 7 7 8 9 8 8 8 7 7 8 8 8 8 8 7 7 7 7 7 6 6 6 5 4
4 4 5 5 4 2 1 2 1 2 2 2 1 1 2 3 3 3 4 4 5 5 5 6 6 5 5 6 7 7 7 7 7 7 8 7 7 7 6 6 7 7 6 6 5 5 5 4 3
3 4 4 4 3 2 2 2 1 1 2 2 0 2 3 3 3 3 3 4 4 4 4 4 4 4 5 4 5 5 5 6 5 6 6 5 5 5 6 7 7 6 6 5 5 4 4 3 3
2 3 3 4 4 3 3 4 2 3 4 3 2 2 3 2 2 2 3 3 3 3 3 4 3 3 3 3 3 3 4 4 4 5 5 4 5 6 6 5 5 5 4 4 4 3 3 3 3
4 3 4 3 4 4 3 4 4 4 3 1 1 1 2 1 1 1 2 3 3 3 2 3 4 3 3 2 2 2 2 2 2 4 4 4 3 3 4 3 4 4 3 3 2 2 3 3 3
5 4 3 3 3 3 4 5 5 5 3 1 1 2 2 2 1 1 1 2 3 3 2 2 3 3 2 2 2 2 2 1 2 2 3 4 3 3 3 3 3 3 3 3 2 2 1 1 2
2 2 4 4 4 4 4 6 6 6 3 3 3 4 4 3 3 2 1 2 2 2 2 2 2 2 3 2 1 2 2 2 2 2 2 3 3 3 2 2 2 2 3 2 2 2 1 1 1
2 3 5 5 5 3 3 6 8 7 5 5 4 4 5 4 3 3 2 2 2 2 2 2 2 2 3 2 1 2 2 2 2 2 2 2 3 3 2 2 2 2 3 3 2 1 1 1 1
5 5 4 4 4 4 4 7 5 4 4 4 4 4 5 5 4 3 3 2 2 2 2 2 2 2 1 2 1 1 1 2 2 2 2 1 2 2 2 2 1 2 2 1 1 1 1 1 1
5 5 5 3 4 3 5 7 3 3 4 5 5 5 5 5 4 3 3 3 3 3 2 2 2 2 1 1 1 1 1 2 2 2 2 2 2 2 1 1 1 2 1 1 1 1 1 1 1
4 5 5 5 3 3 6 8 7 5 5 6 6 5 4 4 3 3 3 3 3 3 3 2 3 2 2 1 1 1 1 1 2 1 1 1 1 2 1 1 1 1 1 1 1 1 1 2 1
6 6 7 5 2 4 8 9 8 6 6 7 6 5 5 4 3 4 4 3 3 3 3 2 3 2 2 1 1 0 0 0 0 1 1 1 1 1 1 0 1 1 2 2 2 2 2 1 1
7 7 8 5 3 5 7 10 8 8 9 8 6 4 4 3 3 4 4 4 3 3 3 2 2 2 2 1 1 1 1 1 1 0 0 0 0 1 1 1 1 1 1 2 2 2 2 2 1
7 7 6 6 6 6 7 8 7 6 6 6 6 5 4 5 5 5 4 3 3 3 2 1 1 2 2 1 0 0 0 0 0 0 0 0 0 0 1 1 1 1 2 2 2 3 3 3 2
6 4 5 6 4 4 4 5 5 5 5 6 5 5 4 3 4 4 4 4 3 3 2 2 1 1 1 1 1 1 1 1 1 1 1 1 1 1 1 1 1 2 2 2 3 2 2 3 3
4 4 5 7 6 6 6 5 5 4 6 6 5 4 3 3 4 5 5 4 3 3 2 1 1 1 1 1 1 2 1 1 1 1 1 1 1 1 2 1 1 2 2 2 3 3 3 3 3
3 4 6 6 4 6 7 7 5 3 4 4 4 4 3 3 3 4 4 4 3 2 2 1 1 1 1 0 1 1 1 1 1 1 1 1 1 1 2 2 2 2 2 3 3 3 4 4 4
2 1 1 2 4 6 3 5 4 0 1 3 4 4 4 3 3 3 3 3 2 2 2 1 1 0 0 0 1 1 1 2 2 2 2 2 2 2 2 3 2 2 3 3 3 4 4 4 5
4 4 3 3 3 3 2 5 2 2 3 4 4 4 3 3 2 2 2 3 2 1 1 1 1 1 0 1 2 2 2 2 2 2 2 3 2 2 3 3 3 3 3 3 3 3 4 4 5
3 4 2 2 4 4 4 3 2 1 2 3 2 2 2 2 2 1 1 1 1 1 2 2 2 2 1 1 2 3 2 2 2 2 2 2 2 3 3 3 3 3 4 4 3 3 4 5 5
3 3 1 2 3 4 5 4 2 1 2 1 1 1 2 2 1 1 0 0 0 1 2 2 2 3 2 2 2 3 2 3 3 2 2 3 3 3 3 4 4 4 4 4 4 4 4 5 5
4 3 3 3 3 3 4 2 1 2 3 3 2 1 1 1 1 0 0 1 0 0 0 1 2 2 2 2 3 3 2 3 3 2 3 3 3 3 4 4 4 4 5 5 5 5 5 6 6
3 4 4 3 4 3 3 4 2 3 2 3 2 1 0 0 0 1 1 1 0 1 1 1 1 1 2 2 3 3 2 3 3 3 3 3 4 4 4 4 5 5 5 5 6 6 6 6 7
Wind_Direction
306 285 260 258 244 233 240 243 232 177 7 39 29 18 25 31 45 100 138 99 106 116 122 125 123 119 117 112 107 103 96 94 92 89 87 86 86 87 86 85 83 81 79 79 81 83 85 86 87
300 287 267 241 240 232 235 220 218 115 65 64 44 39 42 66 68 99 101 96 110 115 122 125 125 122 119 115 111 107 101 99 96 91 88 88 86 85 86 85 84 82 81 80 83 86 85 86 86
280 270 254 234 233 239 250 153 124 103 89 73 71 37 30 54 66 80 88 105 108 112 119 123 128 126 123 119 115 110 106 103 101 96 93 92 90 87 87 85 85 84 84 83 84 87 88 88 88
275 243 243 242 242 244 265 20 45 96 108 110 101 89 84 58 63 81 94 108 110 111 112 122 126 127 125 122 117 113 110 105 103 101 99 98 95 92 91 88 86 87 85 85 84 85 88 88 90
253 246 226 233 242 249 282 27 15 91 142 120 124 114 90 71 73 83 99 108 111 111 112 124 124 125 127 123 121 117 113 110 108 107 105 104 101 99 99 95 91 90 87 87 88 87 89 90 90
247 244 233 230 229 225 229 162 278 257 205 135 62 141 107 91 86 86 91 99 104 109 114 126 125 125 126 124 121 120 119 117 113 113 111 109 106 104 102 100 97 96 93 89 89 89 92 97 96
261 255 250 254 244 234 228 81 313 296 296 2 358 36 120 89 81 88 88 89 93 100 110 119 130 129 129 130 126 124 121 120 119 115 116 113 109 108 104 103 101 100 100 96 93 93 95 102 102
296 282 254 252 253 248 324 7 353 347 330 5 13 50 119 116 101 103 92 87 93 97 105 115 118 126 132 132 130 128 125 121 119 118 116 114 115 112 109 107 105 104 105 103 101 99 100 106 107
286 258 249 256 268 287 4 298 352 17 351 340 16 356 84 111 110 113 103 94 99 99 109 113 113 111 119 130 129 128 129 125 121 121 121 117 120 119 116 112 111 108 108 109 110 112 112 109 120
242 246 256 302 319 327 329 315 317 209 229 242 138 82 117 127 138 145 127 117 108 109 110 112 113 110 108 120 127 132 132 133 136 134 140 137 131 124 119 122 123 121 117 116 122 126 133 128 147
236 253 275 311 344 348 328 314 312 255 255 232 189 128 115 117 137 154 135 122 113 109 106 113 104 102 105 104 124 131 144 155 158 149 158 142 121 116 116 120 123 128 132 138 148 156 175 175 158
250 269 280 295 339 332 307 302 287 273 278 319 78 101 126 179 174 189 153 138 124 116 99 120 109 103 103 100 111 120 120 141 139 153 152 128 115 115 123 125 143 148 154 149 165 183 201 188 177
248 267 286 307 317 314 308 283 280 272 271 278 196 201 210 237 230 274 154 134 123 111 95 82 109 118 103 103 99 109 98 99 127 145 136 122 117 129 128 135 142 144 151 157 183 202 189 177 187
247 256 278 269 268 276 277 278 268 259 244 222 216 205 197 218 217 230 180 146 125 122 115 81 78 103 102 97 113 117 113 122 128 123 124 125 127 119 125 137 134 148 158 169 191 190 172 188 160
251 259 265 248 231 238 264 273 245 239 228 229 226 208 193 204 215 210 177 150 130 114 102 91 89 74 113 119 118 94 95 98 92 107 132 137 131 131 126 134 144 147 160 173 180 185 156 220 234
240 243 241 227 216 210 225 259 242 216 214 234 231 212 200 201 198 190 168 147 137 121 106 93 57 50 96 108 95 88 103 98 91 106 128 146 130 134 122 139 157 142 148 151 171 187 192 207 218
221 238 242 238 219 215 227 259 242 215 214 236 231 212 202 195 183 178 160 148 137 134 123 104 84 50 46 82 82 103 103 104 99 103 106 108 108 121 114 132 148 148 131 161 215 213 187 204 225
235 247 258 242 219 245 254 261 256 225 223 231 223 215 206 192 186 162 141 136 131 124 118 104 95 67 39 59 56 53 96 92 89 86 86 100 131 129 90 95 127 141 167 203 207 224 218 201 204
278 277 275 277 271 256 254 259 253 225 230 238 232 215 205 191 160 147 136 126 123 119 114 112 100 94 84 74 111 126 184 160 133 44 84 95 112 125 101 123 135 140 195 208 202 218 228 215 175
265 270 274 287 288 281 266 266 251 229 222 224 222 209 201 178 158 145 139 130 120 114 119 127 113 106 89 85 155 190 233 207 188 30 28 241 93 150 166 138 196 187 189 220 216 209 221 234 203
259 258 273 281 293 261 266 269 231 219 211 215 217 202 206 195 171 159 147 131 116 106 112 123 109 102 96 60 142 142 9 321 151 246 196 328 340 261 187 172 182 207 203 215 229 219 214 229 234
259 271 279 280 278 265 237 280 247 202 211 213 209 198 199 186 167 160 149 127 119 110 93 66 67 95 112 106 168 169 208 234 244 225 225 255 333 308 254 200 192 207 221 224 232 232 231 223 235
264 298 280 268 266 274 243 246 271 196 218 216 201 189 179 167 170 157 142 134 123 114 105 86 65 55 88 124 196 192 222 239 249 275 250 239 246 292 290 249 220 212 222 226 234 235 230 231 234
261 281 271 252 252 259 228 215 265 215 221 194 179 170 159 154 145 142 132 124 121 116 119 131 121 100 76 62 230 218 232 229 215 273 262 250 248 259 289 280 248 231 225 223 231 234 230 236 238
235 221 279 239 224 246 226 212 242 66 68 158 163 154 144 140 133 139 141 142 146 139 147 170 188 193 100 344 275 247 256 234 213 223 255 266 257 267 258 288 266 249 241 237 230 232 232 228 229
227 219 221 244 256 275 240 231 223 89 65 81 113 127 123 128 131 149 158 164 164 162 182 203 234 259 297 311 289 254 245 244 227 231 237 252 255 254 253 273 272 263 258 256 240 233 237 235 232
232 227 253 272 278 278 246 214 189 108 90 97 105 124 135 139 135 128 120 143 168 211 230 215 220 247 254 275 281 260 244 268 260 244 240 249 256 273 263 266 260 260 253 252 246 237 238 240 237
260 277 240 223 249 263 260 232 234 194 198 168 183 196 191 181 146 113 51 345 261 247 254 222 220 240 258 278 279 270 254 263 260 254 246 255 258 261 262 258 255 258 257 254 247 245 239 239 237
204 220 228 242 246 246 274 274 17 160 169 175 200 204 168 143 114 161 299 305 300 260 263 248 220 241 258 277 275 263 262 273 267 256 255 256 263 261 260 262 259 256 256 253 251 255 250 244 246
238 231 203 216 253 242 256 265 28 70 113 154 180 189 48 28 322 3 354 341 341 253 239 260 239 253 279 283 278 273 279 275 268 270 274 260 258 256 258 261 265 264 260 256 248 249 250 246 243
Height
1497 1498 1500 1503 1504 1504 1498 1488 1481 1483 1484 1486 1488 1489 1491 1496 1500 1511 1511 1510 1509 1510 1512 1514 1515 1517 1519 1520 1522 1523 1524 1525 1526 1527 1528 1529 1529 1530 1531 1531 1532 1532 1533 1533 1534 1534 1535 1535 1535
1497 1499 1502 1502 1503 1505 1495 1485 1483 1484 1486 1488 1490 1491 1494 1498 1502 1506 1508 1509 1509 1510 1512 1513 1515 1517 1519 1521 1522 1523 1524 1525 1526 1527 1528 1529 1530 1531 1532 1532 1533 1533 1534 1534 1535 1535 1536 1536 1537
1497 1499 1502 1499 1499 1497 1490 1481 1482 1485 1487 1489 1492 1494 1497 1502 1504 1506 1508 1509 1510 1510 1512 1514 1516 1517 1519 1521 1522 1524 1525 1526 1527 1528 1529 1530 1531 1532 1532 1533 1533 1534 1534 1535 1535 1536 1536 1537 1537
1499 1501 1500 1499 1496 1488 1485 1484 1484 1486 1488 1491 1493 1496 1500 1504 1505 1507 1508 1509 1510 1511 1512 1514 1516 1517 1519 1521 1522 1524 1525 1526 1527 1528 1529 1530 1531 1532 1533 1533 1534 1534 1535 1535 1536 1536 1537 1537 1538
1499 1499 1499 1498 1492 1487 1485 1485 1486 1488 1489 1492 1494 1497 1502 1504 1505 1506 1508 1509 1510 1511 1512 1514 1516 1517 1519 1521 1522 1524 1525 1526 1527 1528 1529 1530 1531 1532 1533 1533 1534 1534 1535 1536 1536 1537 1537 1538 1539
1499 1496 1498 1496 1489 1486 1485 1486 1488 1489 1491 1493 1495 1497 1503 1505 1505 1506 1508 1509 1510 1511 1512 1514 1516 1517 1519 1521 1522 1524 1525 1526 1527 1528 1529 1530 1531 1532 1533 1533 1534 1535 1535 1536 1536 1537 1538 1538 1539
1498 1495 1494 1490 1488 1487 1486 1487 1489 1491 1492 1494 1496 1498 1502 1504 1505 1507 1508 1509 1510 1511 1512 1513 1515 1517 1519 1521 1522 1523 1525 1526 1527 1528 1529 1530 1531 1532 1533 1533 1534 1535 1535 1536 1536 1537 1538 1539 1539
1496 1495 1491 1489 1489 1488 1487 1489 1491 1493 1494 1495 1497 1499 1502 1504 1505 1507 1508 1509 1510 1510 1512 1513 1515 1516 1518 1520 1521 1523 1524 1525 1527 1528 1529 1529 1531 1532 1532 1533 1534 1534 1535 1536 1536 1537 1538 1539 1539
1496 1498 1494 1490 1489 1489 1489 1490 1492 1494 1495 1496 1498 1500 1502 1503 1505 1506 1507 1508 1509 1510 1511 1512 1514 1516 1517 1519 1520 1522 1524 1525 1526 1527 1528 1529 1530 1531 1532 1533 1534 1534 1535 1536 1536 1537 1538 1538 1539
1496 1497 1493 1490 1489 1490 1490 1491 1493 1494 1495 1496 1498 1499 1500 1502 1504 1505 1506 1507 1508 1509 1510 1511 1513 1514 1516 1518 1519 1521 1522 1524 1525 1526 1527 1528 1529 1530 1531 1532 1533 1533 1534 1535 1536 1536 1537 1538 1539
1494 1495 1493 1492 1491 1491 1492 1492 1493 1494 1495 1496 1498 1499 1500 1501 1503 1504 1504 1506 1507 1508 1510 1511 1512 1514 1515 1516 1518 1519 1521 1522 1524 1525 1526 1527 1528 1529 1530 1531 1531 1532 1533 1534 1535 1535 1536 1537 1538
1494 1494 1493 1493 1493 1493 1493 1493 1494 1494 1495 1496 1497 1498 1499 1501 1501 1502 1503 1504 1506 1507 1508 1510 1511 1512 1514 1515 1516 1518 1519 1521 1522 1524 1525 1526 1526 1527 1528 1529 1530 1531 1532 1532 1533 1534 1535 1536 1537
1494 1494 1494 1494 1494 1494 1494 1494 1494 1493 1494 1495 1495 1497 1497 1499 1500 1501 1502 1503 1504 1505 1506 1508 1509 1511 1512 1514 1515 1516 1518 1519 1521 1522 1523 1524 1524 1525 1527 1528 1529 1529 1530 1531 1532 1533 1534 1535 1535
1493 1494 1494 1494 1494 1493 1494 1493 1493 1491 1493 1493 1494 1494 1495 1496 1498 1499 1500 1501 1502 1503 1505 1506 1507 1509 1511 1512 1513 1515 1516 1518 1519 1520 1521 1522 1523 1524 1525 1526 1527 1528 1529 1530 1530 1531 1532 1533 1534
1494 1494 1494 1492 1491 1492 1493 1492 1490 1489 1490 1491 1492 1492 1494 1495 1496 1497 1498 1499 1500 1501 1503 1504 1505 1507 1508 1510 1511 1513 1514 1515 1517 1518 1519 1520 1521 1522 1523 1524 1525 1526 1527 1528 1528 1529 1530 1531 1532
1493 1494 1494 1490 1489 1490 1495 1493 1487 1487 1488 1488 1489 1490 1491 1492 1494 1495 1496 1497 1498 1499 1500 1502 1503 1504 1506 1507 1509 1510 1512 1513 1515 1516 1517 1518 1519 1520 1521 1521 1522 1524 1525 1525 1526 1527 1528 1528 1529
1492 1493 1490 1489 1487 1488 1491 1489 1485 1485 1485 1486 1487 1488 1488 1490 1491 1492 1494 1495 1496 1497 1498 1499 1500 1502 1503 1505 1507 1508 1510 1511 1512 1514 1515 1515 1516 1518 1518 1519 1520 1521 1522 1523 1523 1524 1525 1526 1526
1492 1489 1486 1487 1485 1486 1488 1486 1483 1483 1483 1484 1484 1485 1486 1487 1488 1490 1491 1492 1493 1495 1496 1497 1498 1499 1501 1503 1504 1506 1507 1509 1510 1511 1512 1513 1514 1515 1516 1516 1517 1518 1519 1520 1520 1521 1522 1523 1523
1488 1487 1487 1485 1484 1486 1485 1483 1480 1480 1481 1481 1482 1482 1483 1485 1486 1487 1488 1490 1491 1492 1493 1494 1495 1497 1498 1499 1501 1502 1504 1505 1507 1508 1509 1510 1511 1512 1513 1513 1514 1515 1516 1516 1517 1518 1519 1519 1520
1487 1488 1487 1485 1483 1484 1483 1480 1475 1475 1475 1477 1478 1479 1481 1482 1483 1484 1486 1487 1488 1489 1491 1492 1493 1494 1495 1497 1498 1500 1501 1502 1504 1505 1506 1507 1508 1509 1510 1510 1511 1512 1512 1513 1514 1514 1515 1516 1517
1487 1488 1487 1488 1485 1483 1483 1479 1472 1470 1471 1473 1475 1476 1478 1479 1479 1481 1483 1484 1486 1487 1488 1489 1490 1491 1493 1494 1496 1497 1498 1499 1500 1501 1503 1504 1505 1506 1506 1507 1507 1508 1509 1509 1510 1511 1511 1512 1513
1488 1485 1486 1487 1489 1488 1483 1486 1470 1468 1470 1471 1472 1473 1475 1476 1477 1479 1480 1482 1483 1484 1486 1487 1488 1489 1490 1492 1493 1493 1494 1495 1496 1497 1499 1500 1501 1502 1502 1503 1504 1504 1505 1505 1506 1507 1508 1508 1508
1487 1485 1486 1486 1487 1489 1482 1486 1473 1465 1468 1468 1469 1470 1472 1473 1475 1476 1477 1479 1481 1482 1484 1485 1486 1487 1488 1489 1489 1490 1491 1492 1492 1493 1495 1496 1497 1498 1498 1499 1500 1500 1501 1501 1502 1503 1503 1504 1505
1486 1486 1485 1485 1488 1491 1478 1481 1474 1467 1464 1465 1467 1469 1470 1472 1473 1474 1476 1477 1479 1480 1482 1483 1483 1484 1485 1486 1486 1487 1488 1488 1489 1489 1490 1491 1492 1493 1494 1495 1495 1496 1496 1497 1497 1498 1499 1499 1500
1487 1491 1494 1491 1491 1483 1469 1472 1471 1463 1461 1462 1465 1467 1469 1471 1472 1472 1474 1474 1476 1478 1479 1480 1480 1481 1481 1482 1482 1483 1484 1485 1485 1485 1486 1487 1487 1488 1489 1490 1491 1491 1492 1492 1493 1493 1494 1495 1495
1487 1489 1493 1492 1485 1476 1471 1471 1467 1462 1461 1462 1464 1466 1468 1469 1470 1471 1472 1473 1474 1475 1476 1477 1477 1477 1477 1478 1479 1479 1480 1481 1481 1481 1482 1482 1483 1483 1484 1485 1486 1486 1487 1488 1488 1489 1489 1490 1490
1485 1486 1484 1488 1485 1484 1472 1464 1464 1462 1462 1463 1464 1466 1467 1468 1469 1469 1470 1471 1471 1472 1473 1474 1473 1474 1474 1475 1475 1475 1476 1476 1477 1477 1478 1478 1479 1479 1480 1480 1481 1481 1482 1483 1483 1483 1483 1484 1485
1486 1484 1487 1488 1487 1481 1466 1461 1466 1466 1465 1464 1465 1465 1466 1467 1467 1468 1468 1468 1469 1469 1470 1470 1470 1470 1470 1470 1471 1471 1471 1472 1472 1472 1473 1473 1474 1474 1475 1475 1476 1476 1477 1477 1478 1477 1478 1478 1478
1485 1485 1484 1484 1482 1482 1476 1470 1462 1463 1463 1464 1465 1465 1466 1466 1466 1466 1467 1466 1466 1466 1466 1466 1467 1467 1466 1466 1467 1467 1467 1467 1467 1467 1468 1468 1469 1469 1469 1470 1470 1470 1471 1472 1472 1472 1472 1472 1472
1481 1480 1483 1487 1483 1479 1479 1475 1461 1461 1462 1463 1464 1464 1465 1465 1465 1465 1465 1464 1464 1464 1464 1463 1463 1463 1463 1463 1463 1462 1462 1462 1462 1462 1463 1463 1463 1463 1464 1464 1465 1465 1465 1466 1466 1466 1466 1466 1466